When you browse on this site, cookies collect data to enhance your experience and personalize the content and advertising you see.
Visit our Privacy Policy to learn more. By continuing to use the site, you agree to this use of cookies and data.
  • In Deutschland
  • Länderverzeichnis
  • Für 7 Tage
  • Wassertemperatur
  • Satellitenkarten
  • Wetterkarte
  • Widgets
  • user-avatar
    Anmelden

    Stündliche Wetter Mohilyow

    Heute, 16 November, Freitag

    Zeit Temperatur Niederschläge Wind Luftdruck Luftfeuchtigkeit
    00:00 -3°C° 0 mm 2 m/S 764 mmHg 92%
    01:00 -3°C° 0 mm 2 m/S 764 mmHg 91%
    02:00 -3°C° 0 mm 1 m/S 765 mmHg 87%
    03:00 -5°C° 0 mm 2 m/S 765 mmHg 86%
    04:00 -5°C° 0 mm 2 m/S 765 mmHg 85%
    05:00 -5°C° 0 mm 2 m/S 765 mmHg 84%
    06:00 -5°C° 0 mm 2 m/S 766 mmHg 82%
    07:00 -5°C° 0 mm 2 m/S 766 mmHg 81%
    08:00 -5°C° 0 mm 2 m/S 766 mmHg 79%
    09:00 -4°C° 0 mm 2 m/S 767 mmHg 75%
    10:00 -3°C° 0 mm 2 m/S 767 mmHg 71%
    11:00 -1°C° 0 mm 2 m/S 767 mmHg 66%
    12:00 -1°C° 0 mm 2 m/S 767 mmHg 67%
    13:00 -1°C° 0 mm 2 m/S 767 mmHg 68%
    14:00 +1°C° 0 mm 2 m/S 767 mmHg 69%
    15:00 -1°C° 0 mm 2 m/S 767 mmHg 72%
    16:00 -3°C° 0 mm 2 m/S 767 mmHg 74%
    17:00 -4°C° 0 mm 2 m/S 767 mmHg 77%
    18:00 -4°C° 0 mm 2 m/S 767 mmHg 76%
    19:00 -5°C° 0 mm 2 m/S 768 mmHg 74%
    20:00 -5°C° 0 mm 2 m/S 768 mmHg 73%
    21:00 -5°C° 0 mm 2 m/S 768 mmHg 71%
    22:00 -5°C° 0 mm 2 m/S 768 mmHg 69%
    23:00 -5°C° 0 mm 2 m/S 768 mmHg 68%

    Morgen, 17 November, Samstag

    Zeit Temperatur Niederschläge Wind Luftdruck Luftfeuchtigkeit
    00:00 -5°C° 0 mm 2 m/S 768 mmHg 66%
    01:00 -5°C° 0 mm 2 m/S 768 mmHg 64%
    02:00 -3°C° 0 mm 1 m/S 768 mmHg 63%
    03:00 -3°C° 0 mm 1 m/S 767 mmHg 61%
    04:00 -4°C° 0 mm 1 m/S 767 mmHg 60%
    05:00 -4°C° 0 mm 1 m/S 767 mmHg 59%
    06:00 -4°C° 0 mm 1 m/S 767 mmHg 58%
    07:00 -4°C° 0 mm 1 m/S 767 mmHg 58%
    08:00 -4°C° 0 mm 1 m/S 767 mmHg 57%
    09:00 -2°C° 0 mm 1 m/S 767 mmHg 54%
    10:00 -1°C° 0 mm 1 m/S 766 mmHg 52%
    11:00 0°C° 0 mm 0 m/S 766 mmHg 49%
    12:00 +1°C° 0 mm 1 m/S 766 mmHg 51%
    13:00 +1°C° 0 mm 1 m/S 765 mmHg 53%
    14:00 +2°C° 0 mm 1 m/S 764 mmHg 55%
    15:00 +1°C° 0 mm 1 m/S 764 mmHg 57%
    16:00 0°C° 0 mm 1 m/S 763 mmHg 58%
    17:00 -3°C° 0 mm 2 m/S 763 mmHg 60%
    18:00 -3°C° 0 mm 2 m/S 762 mmHg 61%
    19:00 -3°C° 0 mm 2 m/S 762 mmHg 61%
    20:00 -3°C° 0 mm 2 m/S 761 mmHg 62%
    21:00 -3°C° 0 mm 2 m/S 761 mmHg 64%
    22:00 -4°C° 0 mm 3 m/S 760 mmHg 65%
    23:00 -4°C° 0 mm 3 m/S 759 mmHg 67%

    übermorgen, 18 November, Sonntag

    Zeit Temperatur Niederschläge Wind Luftdruck Luftfeuchtigkeit
    00:00 -4°C° 0 mm 3 m/S 759 mmHg 71%
    01:00 -4°C° 0 mm 3 m/S 758 mmHg 75%
    02:00 -4°C° 0 mm 3 m/S 757 mmHg 79%
    03:00 -4°C° 0 mm 3 m/S 756 mmHg 82%
    04:00 -2°C° 0 mm 3 m/S 755 mmHg 85%
    05:00 -2°C° 0 mm 4 m/S 754 mmHg 88%
    06:00 -2°C° 0.1 mm 4 m/S 753 mmHg 90%
    07:00 -2°C° 0.1 mm 4 m/S 753 mmHg 92%
    08:00 0°C° 0.1 mm 3 m/S 752 mmHg 94%
    09:00 0°C° 0.1 mm 3 m/S 752 mmHg 94%
    10:00 +1°C° 0.1 mm 3 m/S 752 mmHg 94%
    11:00 +1°C° 0.1 mm 3 m/S 751 mmHg 95%
    12:00 +1°C° 0.1 mm 3 m/S 751 mmHg 95%
    13:00 +2°C° 0.1 mm 2 m/S 751 mmHg 95%
    14:00 +2°C° 0.1 mm 2 m/S 750 mmHg 95%
    15:00 +2°C° 0.2 mm 2 m/S 750 mmHg 96%
    16:00 +2°C° 0.2 mm 2 m/S 750 mmHg 97%
    17:00 +1°C° 0.2 mm 2 m/S 749 mmHg 97%
    18:00 +1°C° 0.3 mm 2 m/S 749 mmHg 97%
    19:00 +1°C° 0.3 mm 2 m/S 749 mmHg 97%
    20:00 +1°C° 0.3 mm 2 m/S 749 mmHg 97%
    21:00 +1°C° 0.1 mm 2 m/S 749 mmHg 97%
    22:00 +1°C° 0.1 mm 2 m/S 749 mmHg 97%
    23:00 +1°C° 0.1 mm 2 m/S 749 mmHg 97%

    19 November, Montag

    Zeit Temperatur Niederschläge Wind Luftdruck Luftfeuchtigkeit
    00:00 +1°C° 0.2 mm 2 m/S 749 mmHg 97%
    01:00 +1°C° 0.2 mm 2 m/S 750 mmHg 97%
    02:00 +1°C° 0.2 mm 2 m/S 750 mmHg 97%
    03:00 +1°C° 0.1 mm 2 m/S 750 mmHg 97%
    04:00 +1°C° 0.1 mm 2 m/S 750 mmHg 97%
    05:00 +1°C° 0.1 mm 2 m/S 750 mmHg 97%
    06:00 +1°C° 0.1 mm 2 m/S 750 mmHg 96%
    07:00 +1°C° 0.1 mm 2 m/S 750 mmHg 96%
    08:00 0°C° 0.1 mm 3 m/S 751 mmHg 96%
    09:00 0°C° 0.2 mm 3 m/S 751 mmHg 96%
    10:00 +1°C° 0.2 mm 2 m/S 751 mmHg 95%
    11:00 +1°C° 0.2 mm 2 m/S 752 mmHg 95%
    12:00 +1°C° 0.1 mm 2 m/S 752 mmHg 95%
    13:00 +1°C° 0.1 mm 2 m/S 752 mmHg 94%
    14:00 +1°C° 0.1 mm 2 m/S 752 mmHg 94%
    15:00 0°C° 0.1 mm 3 m/S 753 mmHg 94%
    16:00 0°C° 0.1 mm 3 m/S 753 mmHg 94%
    17:00 -1°C° 0.1 mm 3 m/S 753 mmHg 94%
    18:00 -1°C° 0.1 mm 3 m/S 753 mmHg 94%
    19:00 -1°C° 0.1 mm 3 m/S 754 mmHg 93%
    20:00 -1°C° 0.1 mm 3 m/S 754 mmHg 93%
    21:00 -2°C° 0 mm 3 m/S 754 mmHg 92%
    22:00 -2°C° 0 mm 3 m/S 755 mmHg 91%
    23:00 -4°C° 0 mm 3 m/S 755 mmHg 90%

    20 November, Dienstag

    Zeit Temperatur Niederschläge Wind Luftdruck Luftfeuchtigkeit
    00:00 -4°C° 0 mm 3 m/S 755 mmHg 90%
    01:00 -5°C° 0 mm 3 m/S 755 mmHg 89%
    02:00 -6°C° 0 mm 3 m/S 755 mmHg 89%
    03:00 -6°C° 0 mm 3 m/S 755 mmHg 89%
    04:00 -5°C° 0 mm 3 m/S 755 mmHg 88%
    05:00 -5°C° 0 mm 3 m/S 755 mmHg 88%
    06:00 -5°C° 0 mm 3 m/S 755 mmHg 89%
    07:00 -5°C° 0 mm 3 m/S 755 mmHg 89%
    08:00 -5°C° 0 mm 4 m/S 755 mmHg 90%
    09:00 -4°C° 0.1 mm 4 m/S 755 mmHg 90%
    10:00 -3°C° 0.1 mm 4 m/S 755 mmHg 90%
    11:00 -2°C° 0.1 mm 4 m/S 755 mmHg 89%
    12:00 -2°C° 0 mm 4 m/S 755 mmHg 89%
    13:00 -2°C° 0 mm 4 m/S 754 mmHg 88%
    14:00 -2°C° 0 mm 4 m/S 754 mmHg 87%
    15:00 -2°C° 0 mm 4 m/S 754 mmHg 87%
    16:00 -1°C° 0 mm 3 m/S 754 mmHg 88%
    17:00 -2°C° 0 mm 3 m/S 754 mmHg 88%
    18:00 -2°C° 0 mm 3 m/S 754 mmHg 88%
    19:00 -2°C° 0 mm 3 m/S 754 mmHg 88%
    20:00 -2°C° 0 mm 3 m/S 753 mmHg 88%
    21:00 -2°C° 0 mm 3 m/S 753 mmHg 88%
    22:00 -2°C° 0 mm 3 m/S 753 mmHg 89%
    23:00 -4°C° 0 mm 3 m/S 753 mmHg 90%

    21 November, Mittwoch

    Zeit Temperatur Niederschläge Wind Luftdruck Luftfeuchtigkeit
    00:00 -3°C° 0 mm 2 m/S 753 mmHg 91%
    01:00 -3°C° 0 mm 2 m/S 753 mmHg 92%
    02:00 -3°C° 0 mm 2 m/S 753 mmHg 93%
    03:00 -4°C° 0 mm 3 m/S 753 mmHg 93%
    04:00 -2°C° 0 mm 3 m/S 752 mmHg 93%
    05:00 -2°C° 0 mm 3 m/S 752 mmHg 93%
    06:00 -2°C° 0 mm 3 m/S 752 mmHg 93%
    07:00 -2°C° 0 mm 3 m/S 752 mmHg 92%
    08:00 -3°C° 0 mm 4 m/S 752 mmHg 92%
    09:00 -3°C° 0 mm 4 m/S 752 mmHg 91%
    10:00 -2°C° 0 mm 4 m/S 751 mmHg 89%
    11:00 -2°C° 0 mm 5 m/S 751 mmHg 88%
    12:00 -2°C° 0 mm 5 m/S 751 mmHg 88%
    13:00 -2°C° 0 mm 5 m/S 751 mmHg 88%
    14:00 -2°C° 0 mm 5 m/S 750 mmHg 87%
    15:00 -2°C° 0 mm 5 m/S 750 mmHg 88%
    16:00 -4°C° 0 mm 6 m/S 749 mmHg 88%
    17:00 -4°C° 0 mm 6 m/S 749 mmHg 88%
    18:00 -4°C° 0 mm 6 m/S 749 mmHg 88%
    19:00 -4°C° 0 mm 6 m/S 749 mmHg 87%
    20:00 -4°C° 0 mm 6 m/S 748 mmHg 86%
    21:00 -4°C° 0 mm 6 m/S 748 mmHg 87%
    22:00 -4°C° 0 mm 6 m/S 748 mmHg 87%
    23:00 -4°C° 0 mm 6 m/S 748 mmHg 88%
    Mehr zeigen